This demonstration page uses our WeatherBlox Daily Observations layout. Learn more.

Left ArrowRight Arrow

Hourly Observations for November 4, 2020

Temp ( °F °C ) Dew Point ( °F °C ) Humidity (%) Winds ( mph kmh ) Pressure ( in mb ) Visibility ( mi km ) Precip ( " mm )
12:51 am 00:51 Partly Cloudy 57 13.9 36 2.2 45 45 NNW 5 7 30.00 1016 10 16 0.00 0.00
1:51 am 01:51 Mostly Clear 54 12.2 36 2.2 51 51 Calm 30.01 1016 10 16 0.00 0.00
2:51 am 02:51 Clear 55 12.8 35 1.7 47 47 Calm 30.01 1016 10 16 0.00 0.00
3:51 am 03:51 Clear 52 11.1 35 1.7 53 53 Calm 30.02 1017 10 16 0.00 0.00
4:51 am 04:51 Clear 52 11.1 35 1.7 53 53 NE 3 6 30.04 1017 10 16 0.00 0.00
5:51 am 05:51 Clear 53 11.7 34 1.1 48 48 S 3 6 30.07 1018 10 16 0.00 0.00
6:51 am 06:51 Sunny 49 9.4 35 1.7 59 59 Calm 30.09 1019 10 16 0.00 0.00
7:51 am 07:51 Sunny 58 14.4 34 1.1 41 41 Calm 30.11 1020 10 16 0.00 0.00
8:51 am 08:51 Sunny 69 20.6 35 1.7 29 29 ESE 15 24 30.11 1020 10 16 0.00 0.00
9:51 am 09:51 Sunny 72 22.2 35 1.7 26 26 SE 8 13 30.11 1020 10 16 0.00 0.00
10:51 am 10:51 Sunny 76 24.4 35 1.7 23 23 S 8 13 30.09 1019 10 16 0.00 0.00
11:51 am 11:51 Sunny 79 26.1 35 1.7 20 20 S 7 11 30.06 1018 10 16 0.00 0.00
12:51 pm 12:51 Sunny 82 27.8 34 1.1 18 18 SE 3 6 30.02 1017 10 16 0.00 0.00
1:51 pm 13:51 Sunny 85 29.4 35 1.7 17 17 WNW 6 9 30.00 1016 10 16 0.00 0.00
2:51 pm 14:51 Sunny 86 30 40 4.4 20 20 Calm 29.98 1015 10 16 0.00 0.00
3:51 pm 15:51 Sunny 85 29.4 40 4.4 20 20 SSW 5 7 29.99 1016 10 16 0.00 0.00
4:51 pm 16:51 Sunny 84 28.9 40 4.4 21 21 Calm 30.00 1016 10 16 0.00 0.00
5:51 pm 17:51 Clear 77 25 39 3.9 26 26 WSW 5 7 30.01 1016 10 16 0.00 0.00
6:51 pm 18:51 Clear 69 20.6 39 3.9 33 33 N 8 13 30.05 1018 10 16 0.00 0.00
7:51 pm 19:51 Clear 70 21.1 37 2.8 30 30 N 9 15 30.04 1017 10 16 0.00 0.00
8:51 pm 20:51 Clear 70 21.1 37 2.8 30 30 NNW 5 7 30.04 1017 10 16 0.00 0.00
9:51 pm 21:51 Clear 63 17.2 38 3.3 40 40 E 7 11 30.06 1018 10 16 0.00 0.00
10:51 pm 22:51 Clear 60 15.6 38 3.3 44 44 S 5 7 30.08 1019 10 16 0.00 0.00
11:51 pm 23:51 Clear 59 15 38 3.3 46 46 Calm 30.08 1019 10 16 0.00 0.00

Powered by AerisWeather